[[{"header":{"parameterUnit":"m.s-1","parameterCategory":1,"la1":30.2991,"la2":30.254,"lo1":-89.0895,"lo2":-89.0444,"dy":0.0017,"dx":0.0017,"nx":28,"ny":28,"refTime":"2025-12-14T03:00:00:Z","depth":0,"parameterNumber":2,"parameterNumberName":"U-component_of_WINDS"},"data":[0,0,0,0,0,0,0,0,0,0,0,0,0,0,0,0,0,0,0,0,0,0,0,0,0,0,0,0,0,0,0,0,0,0,0,0,0,0,0,0,0,0,0,0,0,0,0,0,0,0,0,0,0,0,0,0,0,0,-1.5384,-1.5384,0,-1.5402,-1.5402,-1.5402,-1.5376,-1.5375,-1.5374,-1.5374,-1.5391,-1.5392,-1.5394,0,0,0,0,0,0,0,0,0,0,0,0,0,-1.5326,-1.5328,-1.5384,-1.5384,-1.5384,-1.5402,-1.5402,-1.5402,-1.5376,-1.5375,-1.5374,-1.5373,-1.5391,-1.5392,-1.5394,0,0,0,0,0,0,0,0,0,0,0,0,0,-1.5349,-1.5328,-1.5384,-1.5374,-1.5373,-1.5402,-1.5402,-1.5402,-1.5377,-1.5375,-1.5374,-1.5373,-1.539,-1.5392,-1.5394,-1.5433,0,0,-1.54,-1.5401,0,0,0,0,0,0,0,0,-1.5347,-1.5351,-1.5375,-1.5374,-1.5374,-1.5385,-1.5388,-1.5413,-1.5377,-1.5375,-1.5374,-1.5372,-1.539,-1.5392,-1.5398,-1.5434,-1.5435,-1.54,-1.5401,-1.5402,-1.5403,0,0,0,0,0,0,0,-1.5346,-1.535,-1.5391,-1.5375,-1.5374,-1.5368,-1.5369,-1.5393,-1.539,-1.5375,-1.5373,-1.5376,-1.539,-1.5397,-1.5399,-1.5435,-1.54,-1.5402,-1.5403,-1.5404,-1.5504,-1.5505,0,0,0,0,0,0,-1.5346,-1.5349,-1.539,-1.5392,-1.5357,-1.537,-1.5372,-1.5383,-1.539,-1.539,-1.5377,-1.5375,-1.5394,-1.5396,-1.5399,-1.5445,-1.5402,-1.5404,-1.5405,-1.5502,-1.5504,-1.5506,0,0,0,0,0,0,-1.5345,-1.535,-1.539,-1.537,-1.5374,-1.5372,-1.5385,-1.5384,-1.5391,-1.5391,-1.539,-1.5385,-1.5393,-1.5396,-1.5425,-1.5445,-1.5405,-1.5407,-1.5501,-1.5503,-1.5505,-1.5538,0,0,0,0,0,0,-1.5343,-1.5349,-1.5365,-1.537,-1.5375,-1.5416,-1.5387,-1.5385,-1.5395,-1.5392,-1.5398,-1.5398,-1.5392,-1.5422,-1.5427,-1.5447,-1.5408,-1.5499,-1.5502,-1.5504,-1.5535,-1.5541,-1.5546,0,0,0,0,0,-1.5341,-1.5373,-1.5366,-1.5371,-1.5394,-1.5417,-1.542,-1.5413,-1.5396,-1.5411,-1.5412,-1.5398,-1.5443,-1.5425,-1.543,-1.5452,-1.5497,-1.5501,-1.5504,-1.5533,-1.554,-1.5546,0,0,0,0,0,0,-1.537,-1.5374,-1.5365,-1.54,-1.5409,-1.5412,-1.5431,-1.5421,-1.5434,-1.543,-1.542,-1.5422,-1.5453,-1.5455,-1.5436,-1.549,-1.5467,-1.5472,-1.5487,-1.5494,-1.55,-1.5498,-1.541,0,0,0,0,0,-1.538,-1.5398,-1.5401,-1.5431,-1.5436,-1.5433,-1.5443,-1.5436,-1.5444,-1.5448,-1.545,-1.5458,-1.5474,-1.5484,-1.5499,-1.5536,-1.5536,-1.5553,-1.5559,-1.5563,-1.5567,-1.5586,-1.5593,-1.5517,-1.5517,-1.5517,0,0,-1.5402,-1.5406,-1.5418,-1.5437,-1.5443,-1.5462,-1.5436,-1.5457,-1.5471,-1.5451,-1.5478,-1.548,-1.5488,-1.5521,-1.5535,-1.5524,-1.5588,-1.5567,-1.5571,-1.5572,-1.559,-1.5597,-1.5604,-1.5519,-1.5519,-1.5518,0,0,-1.545,-1.5456,-1.5482,-1.5488,-1.5497,-1.5495,-1.5501,-1.5507,-1.5508,-1.5535,-1.552,-1.5536,-1.5564,-1.557,-1.5577,-1.5628,-1.5616,-1.5634,-1.5662,-1.5681,-1.5687,-1.5692,-1.571,-1.5716,-1.5637,-1.5638,-1.5638,0,-1.5476,-1.5504,-1.5496,-1.5518,-1.5527,-1.551,-1.5536,-1.5542,-1.5556,-1.5562,-1.5549,-1.5583,-1.5587,-1.5621,-1.5634,-1.564,-1.5646,-1.5632,-1.5687,-1.5692,-1.5697,-1.5713,-1.572,-1.564,-1.5639,-1.5639,-1.5639,0,-1.5534,-1.5554,-1.5574,-1.5587,-1.5598,-1.5622,-1.5617,-1.5629,-1.5622,-1.5622,-1.5649,-1.5654,-1.5669,-1.5677,-1.567,-1.571,-1.5702,-1.5688,-1.5665,-1.5706,-1.5721,-1.5728,-1.5642,-1.5642,-1.5641,-1.5641,0,0,-1.5601,-1.561,-1.5617,-1.5623,-1.5632,-1.5647,-1.567,-1.5685,-1.5695,-1.5705,-1.5723,-1.5747,-1.5734,-1.5742,-1.5736,-1.5753,-1.5792,-1.5736,-1.5736,-1.5746,-1.5834,-1.5844,-1.5851,-1.5784,-1.5785,-1.5786,-1.5833,0,-1.5649,-1.5688,-1.5682,-1.5721,-1.5738,-1.5723,-1.5743,-1.575,-1.575,-1.5765,-1.5764,-1.5781,-1.5763,-1.5768,-1.5784,-1.5784,-1.5809,-1.578,-1.58,-1.5801,-1.5798,-1.586,-1.587,-1.5914,-1.5839,-1.584,-1.5841,0,-1.571,-1.5722,-1.5762,-1.5768,-1.5775,-1.5793,-1.5806,-1.582,-1.5828,-1.5827,-1.5836,-1.5827,-1.5849,-1.5826,-1.5857,-1.5837,-1.5845,-1.5846,-1.5848,-1.5849,-1.5823,-1.5861,-1.5928,-1.5934,-1.5851,-1.585,-1.5849,0,-1.5753,-1.578,-1.5807,-1.5812,-1.582,-1.5833,-1.5837,-1.5843,-1.5852,-1.5864,-1.587,-1.5884,-1.5891,-1.5902,-1.5897,-1.5881,-1.5928,-1.5905,-1.5927,-1.5927,-1.5936,-1.5935,-1.6005,-1.5943,-1.5943,-1.5943,-1.5943,0,-1.5806,-1.5831,-1.5826,-1.5843,-1.587,-1.5863,-1.589,-1.5892,-1.5898,-1.5914,-1.5902,-1.5917,-1.591,-1.5925,-1.5921,-1.5946,-1.595,-1.5949,-1.5948,-1.595,-1.595,-1.5954,-1.595,-1.5945,-1.5945,-1.5944,-1.5944,0,-1.5859,-1.5857,-1.5885,-1.589,-1.5892,-1.5912,-1.5916,-1.5931,-1.593,-1.5951,-1.5956,-1.5954,-1.5971,-1.5967,-1.5986,-1.5983,-1.6014,-1.601,-1.6012,-1.601,-1.6032,-1.603,-1.6105,-1.6114,-1.6048,-1.6049,-1.605,0,-1.5893,-1.5911,-1.5919,-1.5929,-1.5934,-1.595,-1.596,-1.5954,-1.5964,-1.5974,-1.5988,-1.6004,-1.6016,-1.6044,-1.6044,-1.6058,-1.6053,-1.6079,-1.6055,-1.6056,-1.6052,-1.605,-1.6052,-1.6083,-1.6084,-1.6084,-1.6085,0,-1.5953,-1.5951,-1.5965,-1.5979,-1.5991,-1.6001,-1.6011,-1.602,-1.6014,-1.6026,-1.6043,-1.6053,-1.6072,-1.6087,-1.61,-1.6104,-1.6093,-1.6092,-1.6098,-1.6099,-1.6099,-1.6099,-1.6023,-1.609,-1.609,-1.6089,-1.6089,-1.6089,-1.5996,-1.6012,-1.6019,-1.6035,-1.6042,-1.6051,-1.6065,-1.6066,-1.6081,-1.6096,-1.6091,-1.6111,-1.6118,-1.6134,-1.6139,-1.6154,-1.6144,-1.6152,-1.6154,-1.6156,-1.6158,-1.6098,-1.6156,-1.6156,-1.6156,-1.6156,-1.6156,0,-1.6055,-1.6059,-1.6074,-1.6087,-1.61,-1.6089,-1.6099,-1.611,-1.6128,-1.6135,-1.6148,-1.6167,-1.6182,-1.6184,-1.6198,-1.6209,-1.6205,-1.6213,-1.6212,-1.6212,-1.6167,-1.616,-1.6217,-1.6217,-1.6217,-1.6217,-1.6217,-1.6217,-1.6086,-1.6112,-1.6111,-1.6139,-1.6143,-1.6162,-1.6169,-1.6177,-1.6183,-1.6205,-1.6218,-1.6219,-1.6224,-1.6238,-1.6251,-1.6251,-1.6257,-1.6267,-1.6265,-1.6222,-1.6216,-1.621,-1.6203,-1.6268,-1.6268,-1.6309,-1.6309,-1.631]},{"header":{"parameterUnit":"m.s-1","parameterCategory":1,"la1":30.2991,"la2":30.254,"lo1":-89.0895,"lo2":-89.0444,"dy":0.0017,"dx":0.0017,"nx":28,"ny":28,"refTime":"2025-12-14T03:00:00:Z","depth":0,"parameterNumber":3,"parameterNumberName":"V-component_of_WINDS"},"data":[0,0,0,0,0,0,0,0,0,0,0,0,0,0,0,0,0,0,0,0,0,0,0,0,0,0,0,0,0,0,0,0,0,0,0,0,0,0,0,0,0,0,0,0,0,0,0,0,0,0,0,0,0,0,0,0,0,0,1.1008,1.1009,0,1.1116,1.1117,1.1118,1.1187,1.1187,1.1187,1.1188,1.1298,1.1301,1.1303,0,0,0,0,0,0,0,0,0,0,0,0,0,1.0865,1.0868,1.1008,1.101,1.1011,1.1115,1.1117,1.1118,1.1187,1.1187,1.1188,1.1188,1.1298,1.1301,1.1304,0,0,0,0,0,0,0,0,0,0,0,0,0,1.0945,1.0868,1.1008,1.1057,1.1063,1.1115,1.1117,1.1119,1.1186,1.1187,1.1188,1.1188,1.1297,1.13,1.1304,1.1316,0,0,1.1316,1.1318,0,0,0,0,0,0,0,0,1.0941,1.0951,1.1049,1.1054,1.106,1.1138,1.1107,1.1185,1.1186,1.114,1.1188,1.1189,1.1245,1.1253,1.1272,1.1321,1.1325,1.1316,1.1319,1.132,1.1321,0,0,0,0,0,0,0,1.0935,1.0946,1.1051,1.105,1.1057,1.1075,1.1087,1.1122,1.1187,1.1144,1.1149,1.1161,1.1248,1.1268,1.1275,1.1327,1.1316,1.132,1.1322,1.1323,1.1394,1.1394,0,0,0,0,0,0,1.0922,1.0941,1.1047,1.1054,1.1001,1.1077,1.1091,1.1113,1.1187,1.1199,1.116,1.1163,1.1261,1.127,1.1279,1.1299,1.132,1.1324,1.1326,1.1395,1.1394,1.1394,0,0,0,0,0,0,1.0918,1.093,1.1043,1.0999,1.1015,1.1079,1.1103,1.1115,1.1134,1.12,1.1212,1.1168,1.1262,1.1274,1.1307,1.1304,1.1326,1.1329,1.1395,1.1395,1.1394,1.1339,0,0,0,0,0,0,1.0914,1.0929,1.0933,1.0999,1.1017,1.1068,1.1103,1.1116,1.1141,1.1146,1.121,1.1222,1.1263,1.1301,1.131,1.131,1.1332,1.1396,1.1395,1.1394,1.1341,1.1336,1.1332,0,0,0,0,0,1.0908,1.0912,1.0933,1.0945,1.1023,1.1067,1.1078,1.1126,1.114,1.1146,1.1188,1.122,1.1303,1.1303,1.1315,1.1315,1.1396,1.1395,1.1394,1.1343,1.1337,1.1332,0,0,0,0,0,0,1.0844,1.0922,1.0945,1.097,1.1012,1.1079,1.1087,1.1117,1.1156,1.1159,1.1217,1.1231,1.1259,1.1291,1.129,1.1332,1.1353,1.1355,1.131,1.1305,1.1301,1.1293,1.1335,0,0,0,0,0,1.0833,1.0862,1.0928,1.0944,1.0964,1.1022,1.1043,1.1076,1.1121,1.1139,1.1184,1.1227,1.1264,1.1286,1.1323,1.1346,1.1362,1.1352,1.1348,1.1344,1.1345,1.1362,1.1359,1.1391,1.1391,1.1391,0,0,1.081,1.0856,1.087,1.0932,1.0969,1.0998,1.1036,1.1065,1.1088,1.1144,1.1178,1.1213,1.1265,1.1294,1.1309,1.1321,1.134,1.1343,1.1339,1.1342,1.1361,1.1358,1.1355,1.139,1.139,1.139,0,0,1.0784,1.082,1.0839,1.0875,1.0929,1.0968,1.0973,1.1036,1.1061,1.1097,1.114,1.1169,1.1229,1.1265,1.1292,1.1282,1.1313,1.1292,1.1269,1.1285,1.1283,1.1281,1.1279,1.1278,1.1293,1.1293,1.1293,0,1.0748,1.0794,1.0845,1.0872,1.0899,1.0952,1.0972,1.1004,1.1068,1.1086,1.1099,1.1178,1.1216,1.1256,1.1254,1.1273,1.1281,1.1285,1.1279,1.1278,1.1277,1.1276,1.1275,1.129,1.129,1.129,1.1291,0,1.0749,1.078,1.0789,1.0849,1.0877,1.0901,1.0957,1.0979,1.1011,1.1049,1.1086,1.1134,1.1183,1.1195,1.1225,1.1239,1.1246,1.1268,1.129,1.127,1.127,1.127,1.1286,1.1287,1.1288,1.1288,0,0,1.0684,1.0774,1.0776,1.0806,1.0871,1.0896,1.0923,1.0971,1.099,1.1033,1.1058,1.111,1.1132,1.1162,1.1197,1.1211,1.1203,1.1232,1.1235,1.1226,1.1224,1.1207,1.1206,1.1224,1.1224,1.1224,1.122,0,1.0668,1.0718,1.0766,1.08,1.0831,1.0883,1.0907,1.095,1.0987,1.1019,1.106,1.1096,1.1121,1.114,1.1156,1.12,1.1203,1.1201,1.1249,1.125,1.1235,1.1206,1.1188,1.1181,1.122,1.122,1.122,0,1.0656,1.0697,1.0734,1.0799,1.0814,1.0834,1.0883,1.0913,1.0964,1.099,1.1025,1.1063,1.1096,1.1115,1.1162,1.1159,1.1182,1.1207,1.1208,1.1215,1.1234,1.1213,1.118,1.1179,1.1221,1.1221,1.122,0,1.0607,1.0671,1.0703,1.0726,1.0802,1.0815,1.0847,1.0899,1.0926,1.0969,1.0988,1.1034,1.1059,1.1095,1.1145,1.1154,1.1188,1.121,1.1211,1.121,1.1216,1.1215,1.1188,1.1229,1.1229,1.1229,1.1229,0,1.0585,1.0606,1.0682,1.0701,1.0727,1.0783,1.0807,1.0844,1.089,1.0919,1.0966,1.0992,1.1056,1.109,1.113,1.1164,1.1175,1.1198,1.1208,1.1194,1.1191,1.121,1.1212,1.1229,1.1229,1.1229,1.1229,0,1.0534,1.0585,1.0623,1.0692,1.071,1.0727,1.0786,1.0808,1.0848,1.0884,1.0896,1.0959,1.1002,1.1055,1.1115,1.1142,1.1172,1.1187,1.1155,1.1161,1.116,1.116,1.1144,1.1146,1.1184,1.1184,1.1183,0,1.0517,1.0534,1.0606,1.0628,1.0659,1.0694,1.0723,1.0779,1.0806,1.0867,1.0882,1.0928,1.0968,1.1035,1.1087,1.1133,1.1151,1.1142,1.1158,1.1144,1.1153,1.1151,1.1154,1.1138,1.1137,1.1137,1.1136,0,1.0481,1.0507,1.0545,1.0593,1.0625,1.0665,1.0707,1.0723,1.0789,1.0817,1.0862,1.0893,1.0955,1.1001,1.1055,1.109,1.1125,1.1131,1.1134,1.112,1.1101,1.1113,1.1145,1.1131,1.1132,1.1132,1.1132,1.1133,1.0448,1.0467,1.0521,1.0563,1.0601,1.064,1.0664,1.0708,1.0746,1.0801,1.0832,1.0876,1.093,1.1006,1.1039,1.1075,1.1088,1.1092,1.1093,1.1093,1.109,1.1095,1.1085,1.1085,1.1086,1.1086,1.1086,0,1.0417,1.0454,1.0492,1.0551,1.0584,1.0614,1.0663,1.0689,1.0727,1.0774,1.0813,1.0866,1.0912,1.0968,1.1018,1.1036,1.1054,1.1048,1.1047,1.1055,1.1075,1.1068,1.1033,1.1033,1.1033,1.1033,1.1033,1.1033,1.0404,1.0439,1.0471,1.0525,1.0564,1.0607,1.0633,1.067,1.0708,1.0764,1.0803,1.0839,1.0891,1.0945,1.0989,1.1005,1.1022,1.1011,1.1031,1.1049,1.1053,1.1058,1.1052,1.1014,1.1014,1.1009,1.1009,1.1009]}]]